Location: Saratoga Springs
(43.0831°N, 73.7850°W)
Time: 02:51:54
(UTC-04:00)

Vanguard 1 Rocket - Pass Details

Date: 20 April 2024
Orbit: 651 x 4220 km, 34.3° (Epoch: 17 May)

Event Time Altitude Azimuth Distance (km) Brightness Sun altitude
Rises 01:25:23 0° 270° (W) 4,723 11.0 -34.8°
Enters shadow 01:27:29 - 262° (W) 4,331 10.7 -34.7°
Reaches altitude 10° 01:28:37 10° 258° (WSW) 4,155 - -34.7°
Maximum altitude 01:38:00 27° 206° (SSW) 4,022 - -34.3°
Drops below altitude 10° 01:52:48 10° 158° (SSE) 6,642 - -33.6°
Exits shadow 01:58:01 - 151° (SSE) 7,689 11.8 -33.3°
Sets 02:00:10 0° 148° (SSE) 8,108 11.9 -33.2°
